| time (UTC) | temp F | wind direction | speed knots | gust knots | rain 1hr in | rain 24hr in | rain mn in | humidity % | barometer mb |
| 20260506143018 | 46 | 339 | 2.6 | 5.2 | 0.00 | 0.00 | 0.00 | 63 | 1010.5 |
| 20260506141516 | 45 | 296 | 2.6 | 7.0 | 0.00 | 0.00 | 0.00 | 65 | 1010.3 |
| 20260506140020 | 44 | 355 | 3.5 | 7.8 | 0.00 | 0.00 | 0.00 | 64 | 1010.3 |
| 20260506134513 | 43 | 11 | 5.2 | 9.6 | 0.00 | 0.00 | 0.00 | 65 | 1010.2 |
| 20260506133011 | 43 | 15 | 2.6 | 7.8 | 0.00 | 0.00 | 0.00 | 66 | 1010.0 |
| 20260506131508 | 43 | 340 | 3.5 | 7.8 | 0.00 | 0.00 | 0.00 | 67 | 1009.9 |
| 20260506130002 | 43 | 26 | 2.6 | 7.8 | 0.00 | 0.00 | 0.00 | 65 | 1009.7 |
| 20260506124600 | 42 | 33 | 3.5 | 10.4 | 0.00 | 0.00 | 0.00 | 68 | 1009.5 |
| 20260506123110 | 42 | 24 | 1.7 | 8.7 | 0.00 | 0.00 | 0.00 | 69 | 1009.4 |
| 20260506121559 | 41 | 331 | 3.5 | 7.8 | 0.00 | 0.00 | 0.00 | 72 | 1009.3 |
| 20260506120046 | 41 | 15 | 4.3 | 9.6 | 0.00 | 0.00 | 0.00 | 73 | 1009.0 |
| 20260506114542 | 40 | 78 | 4.3 | 7.8 | 0.00 | 0.00 | 0.00 | 74 | 1008.7 |
| 20260506113041 | 40 | 343 | 1.7 | 4.3 | 0.00 | 0.00 | 0.00 | 77 | 1008.6 |
| 20260506111536 | 39 | 360 | 0.0 | 1.7 | 0.00 | 0.00 | 0.00 | 75 | 1008.3 |
| 20260506110034 | 40 | 360 | 0.0 | 0.9 | 0.00 | 0.00 | 0.00 | 74 | 1007.9 |
| 20260506104531 | 40 | 360 | 0.0 | 1.7 | 0.00 | 0.00 | 0.00 | 74 | 1007.8 |
| 20260506103028 | 40 | 360 | 0.0 | 3.5 | 0.00 | 0.00 | 0.00 | 71 | 1007.6 |
| 20260506101524 | 42 | 360 | 1.7 | 5.2 | 0.00 | 0.00 | 0.00 | 70 | 1007.6 |
| 20260506100020 | 43 | 344 | 2.6 | 5.2 | 0.00 | 0.00 | 0.00 | 75 | 1007.1 |
| 20260506094518 | 43 | 9 | 2.6 | 4.3 | 0.00 | 0.00 | 0.00 | 78 | 1006.8 |
| 20260506093016 | 43 | 355 | 0.9 | 4.3 | 0.00 | 0.00 | 0.00 | 79 | 1006.9 |
| 20260506091516 | 43 | 340 | 2.6 | 4.3 | 0.00 | 0.00 | 0.00 | 80 | 1006.9 |
| 20260506090013 | 44 | 9 | 0.9 | 3.5 | 0.00 | 0.00 | 0.00 | 79 | 1006.6 |
| 20260506084511 | 44 | 10 | 2.6 | 4.3 | 0.00 | 0.00 | 0.00 | 77 | 1006.7 |
| 20260506083016 | 44 | 338 | 1.7 | 4.3 | 0.00 | 0.00 | 0.00 | 76 | 1006.8 |
| 20260506081507 | 44 | 355 | 1.7 | 3.5 | 0.00 | 0.00 | 0.00 | 74 | 1006.9 |
| 20260506073101 | 45 | 319 | 1.7 | 3.5 | 0.00 | 0.00 | 0.00 | 69 | 1006.7 |
| 20260506071557 | 46 | 337 | 2.6 | 4.3 | 0.00 | 0.00 | 0.00 | 67 | 1006.6 |
| 20260506061551 | 47 | 287 | 2.6 | 7.0 | 0.00 | 0.00 | 0.00 | 60 | 1006.7 |
| 20260506044542 | 48 | 279 | 4.3 | 7.8 | 0.00 | 0.00 | 0.00 | 55 | 1006.3 |
| 20260506043034 | 48 | 313 | 3.5 | 7.8 | 0.00 | 0.00 | 0.00 | 56 | 1006.1 |
| 20260506041548 | 48 | 265 | 3.5 | 7.8 | 0.00 | 0.00 | 0.00 | 54 | 1006.2 |
| 20260506040032 | 48 | 299 | 2.6 | 7.8 | 0.00 | 0.00 | 0.00 | 54 | 1006.2 |
| 20260506034538 | 49 | 317 | 2.6 | 7.8 | 0.00 | 0.00 | 0.00 | 53 | 1006.3 |
| 20260506033026 | 49 | 305 | 2.6 | 6.1 | 0.00 | 0.00 | 0.00 | 54 | 1006.3 |
| 20260506031525 | 49 | 279 | 2.6 | 6.1 | 0.00 | 0.00 | 0.00 | 53 | 1006.3 |
| 20260506030022 | 49 | 298 | 2.6 | 4.3 | 0.00 | 0.00 | 0.00 | 53 | 1006.2 |
| 20260506024523 | 49 | 281 | 2.6 | 6.1 | 0.00 | 0.00 | 0.00 | 52 | 1006.3 |
| 20260506023019 | 49 | 291 | 1.7 | 7.0 | 0.00 | 0.00 | 0.00 | 51 | 1006.0 |
| 20260506021518 | 50 | 252 | 1.7 | 7.0 | 0.00 | 0.00 | 0.00 | 52 | 1006.4 |
| 20260506020015 | 50 | 283 | 1.7 | 7.0 | 0.00 | 0.00 | 0.00 | 50 | 1006.0 |
| 20260506014512 | 50 | 298 | 2.6 | 6.1 | 0.00 | 0.00 | 0.00 | 50 | 1005.7 |
| 20260506013028 | 50 | 292 | 2.6 | 7.8 | 0.00 | 0.00 | 0.00 | 48 | 1005.7 |
| 20260506011521 | 51 | 259 | 3.5 | 9.6 | 0.00 | 0.00 | 0.00 | 49 | 1005.5 |
| 20260506010009 | 51 | 279 | 4.3 | 9.6 | 0.00 | 0.00 | 0.00 | 47 | 1005.5 |
| 20260506004507 | 51 | 292 | 1.7 | 8.7 | 0.00 | 0.00 | 0.00 | 47 | 1005.5 |
| 20260506003006 | 52 | 299 | 5.2 | 11.3 | 0.00 | 0.00 | 0.00 | 45 | 1005.4 |
| 20260506001503 | 52 | 317 | 7.8 | 11.3 | 0.00 | 0.00 | 0.00 | 45 | 1005.3 |
| 20260506000000 | 52 | 279 | 2.6 | 7.8 | 0.00 | 0.00 | 0.00 | 45 | 1005.0 |
| 20260505234559 | 53 | 271 | 4.3 | 8.7 | 0.00 | 0.00 | 0.00 | 44 | 1004.9 |
| 20260505233058 | 53 | 267 | 4.3 | 10.4 | 0.00 | 0.00 | 0.00 | 44 | 1004.7 |
| 20260505231558 | 53 | 268 | 3.5 | 10.4 | 0.00 | 0.00 | 0.00 | 43 | 1004.5 |
| 20260505230120 | 54 | 269 | 4.3 | 11.3 | 0.00 | 0.00 | 0.00 | 45 | 1004.5 |
| 20260505224555 | 54 | 233 | 3.5 | 9.6 | 0.00 | 0.00 | 0.00 | 54 | 1004.6 |
| 20260505223054 | 54 | 281 | 1.7 | 7.0 | 0.00 | 0.00 | 0.00 | 54 | 1004.6 |
| 20260505221559 | 54 | 257 | 3.5 | 8.7 | 0.00 | 0.00 | 0.00 | 54 | 1004.6 |
| 20260505220056 | 54 | 26 | 2.6 | 10.4 | 0.00 | 0.00 | 0.00 | 54 | 1004.6 |
| 20260505214551 | 54 | 200 | 3.5 | 13.0 | 0.00 | 0.00 | 0.00 | 56 | 1004.7 |
| 20260505213052 | 54 | 267 | 6.1 | 8.7 | 0.00 | 0.00 | 0.00 | 54 | 1004.6 |
| 20260505211600 | 54 | 220 | 2.6 | 9.6 | 0.00 | 0.00 | 0.00 | 55 | 1004.7 |
| 20260505210048 | 54 | 294 | 6.1 | 10.4 | 0.00 | 0.00 | 0.00 | 56 | 1004.7 |
| 20260505204547 | 54 | 266 | 7.0 | 10.4 | 0.00 | 0.00 | 0.00 | 61 | 1004.5 |
| 20260505203047 | 54 | 242 | 4.3 | 9.6 | 0.00 | 0.00 | 0.00 | 63 | 1004.6 |
| 20260505201548 | 54 | 289 | 4.3 | 10.4 | 0.00 | 0.00 | 0.00 | 63 | 1004.5 |
| 20260505200048 | 54 | 198 | 4.3 | 8.7 | 0.00 | 0.00 | 0.00 | 62 | 1004.4 |
| 20260505194545 | 54 | 281 | 7.0 | 11.3 | 0.00 | 0.00 | 0.00 | 63 | 1004.6 |
| 20260505193057 | 54 | 252 | 6.1 | 11.3 | 0.00 | 0.00 | 0.00 | 62 | 1004.6 |
| 20260505191544 | 54 | 277 | 4.3 | 7.8 | 0.00 | 0.00 | 0.00 | 64 | 1004.6 |
| 20260505190045 | 54 | 15 | 3.5 | 11.3 | 0.00 | 0.00 | 0.00 | 63 | 1004.6 |
| 20260505184540 | 54 | 9 | 2.6 | 11.3 | 0.00 | 0.00 | 0.00 | 62 | 1004.6 |
| 20260505183039 | 55 | 245 | 5.2 | 9.6 | 0.00 | 0.00 | 0.00 | 63 | 1004.3 |
| 20260505181543 | 55 | 278 | 4.3 | 14.8 | 0.00 | 0.00 | 0.00 | 61 | 1004.1 |
| 20260505180035 | 55 | 244 | 5.2 | 12.2 | 0.00 | 0.00 | 0.00 | 62 | 1003.9 |
| 20260505174533 | 54 | 271 | 4.3 | 9.6 | 0.00 | 0.00 | 0.00 | 68 | 1003.8 |
| 20260505173031 | 53 | 265 | 5.2 | 11.3 | 0.00 | 0.00 | 0.00 | 70 | 1003.9 |
| 20260505171531 | 53 | 242 | 3.5 | 12.2 | 0.00 | 0.00 | 0.00 | 70 | 1003.6 |
| 20260505170032 | 53 | 281 | 5.2 | 11.3 | 0.00 | 0.00 | 0.00 | 73 | 1003.7 |
| 20260505164528 | 52 | 181 | 4.3 | 7.8 | 0.00 | 0.00 | 0.00 | 74 | 1004.0 |
| 20260505163027 | 51 | 196 | 0.9 | 7.0 | 0.00 | 0.00 | 0.00 | 75 | 1003.9 |
| 20260505161539 | 51 | 187 | 2.6 | 6.1 | 0.00 | 0.00 | 0.00 | 75 | 1003.9 |
| 20260505153024 | 50 | 296 | 1.7 | 3.5 | 0.00 | 0.00 | 0.00 | 75 | 1003.9 |
| 20260505151521 | 51 | 327 | 2.6 | 5.2 | 0.00 | 0.00 | 0.00 | 74 | 1004.0 |